Regional Weather Roundup
Issued by NWS Bismarck, ND

Home | Current Version | Previous Version | Text Only | Print | Product List | Glossary On
Versions: 1 2 3 4 5 6 7 8 9 10 11 12 13 14 15 16 17 18 19 20 21 22 23 24 25 26 27 28 29 30 31 32 33 34 35 36 37 38 39 40 41 42 43 44 45 46 47 48 49 50
000
ASUS43 KBIS 301702
RWRBIS

NWR BROADCAST TEXT
NATIONAL WEATHER SERVICE BISMARCK ND
1200 PM CDT SAT APR 30 2016

NOTE: "FAIR" INDICATES FEW OR NO CLOUDS BELOW 12,000 FEET WITH NO
SIGNIFICANT WEATHER AND/OR OBSTRUCTIONS TO VISIBILITY.


CITY           SKY/WX    TMP DP  RH WIND       PRES   REMARKS
WILLISTON      SUNNY     59  28  30 E13G25    30.27S
MINOT          SUNNY     61  28  28 NE17G25   30.26F
MINOT AFB      NOT AVBL
BISMARCK       CLOUDY    56  35  45 E14       30.21R
DICKINSON      MOSUNNY   54  32  43 NE17G25   30.18S
GARRISON         N/A     56  32  40 NE17G26   30.24R
HETTINGER ARPT PTSUNNY   54  34  46 NE20G26   30.18R
JAMESTOWN      CLOUDY    55  31  39 NE22G33   30.19S
CARRINGTON     FAIR      55  28  35 NE23G31   30.25S
HAZEN          FAIR      55  32  41 E18G25    30.24S
LINTON         PTSUNNY   55  36  47 E18G25    30.20S
OAKES            N/A    N/A N/A N/A MISG        N/A
STANLEY        FAIR      55  27  33 E16G29    30.29F
$$

CITY           SKY/WX    TMP DP  RH WIND       PRES   REMARKS
GRAND FORKS    MOSUNNY   58  29  33 E17G31    30.25F
GRAND FORKS AF NOT AVBL
DEVILS LAKE    SUNNY     54  29  38 NE22G28   30.27F
FARGO          SUNNY     59  31  34 NE23G30   30.17F
CAVALIER       FAIR      55  32  41 NE14G22   30.31F
GRAFTON        FAIR      57  30  35 NE20G28   30.30F
GWINNER        FAIR      55  32  41 NE25G31   30.15S
LANGDON        FAIR      55  28  35 NE17G29   30.30F
$$

CITY           SKY/WX    TMP DP  RH WIND       PRES   REMARKS
ABERDEEN       CLOUDY    54  32  43 NE21G36   30.11S
MOBRIDGE       MOSUNNY   55  36  48 NE20G30   30.11S
BUFFALO          N/A     50  35  56 NE15      30.09R
RAPID CITY     CLOUDY    45  36  70 NE17      30.09S
GLASGOW        SUNNY     56  32  40 E13       30.26R
SIDNEY         SUNNY     57  30  35 NE15G23   30.26S
WOLF POINT     SUNNY     58  33  39 E12G21    30.27S
GLENDIVE       MOSUNNY   54  34  47 NE17      30.25S
MILES CITY     CLOUDY    54  35  48 NE12      30.20R
BAKER          MOSUNNY   53  33  46 E16G25    30.19S
$$

CITY           SKY/WX    TMP DP  RH WIND       PRES   REMARKS
BILLINGS       CLOUDY    48  35  60 E12       30.18R
GREAT FALLS    CLOUDY    48  37  65 VRB5      30.20R
$$





USA.gov is the U.S. government's official web portal to all federal, state and local government web resources and services.